Regional Weather Roundup
Issued by NWS Charleston, SC

Current Version | Previous Version | Graphics & Text | Print | Product List | Glossary On
Versions: 1 2 3 4 5 6 7 8 9 10 11 12 13 14 15 16 17 18 19 20 21 22 23 24 25 26 27 28 29 30 31 32 33 34 35 36 37 38 39 40 41 42 43 44 45 46 47 48 49 50
000
ASUS42 KCHS 021025
RWRCHS

REGIONAL WEATHER ROUNDUP
NATIONAL WEATHER SERVICE CHARLESTON SC
600 AM EDT TUE SEP 02 2014

NOTE: "FAIR" INDICATES FEW OR NO CLOUDS BELOW 12,000 FEET WITH NO
SIGNIFICANT WEATHER AND/OR OBSTRUCTIONS TO VISIBILITY.

NOT ALL STATIONS ARE QUALITY CONTROLLED BY THE NATIONAL
WEATHER SERVICE. USE DATA WITH CAUTION...ESPECIALLY
DEWPOINT OBSERVATIONS.

SCZ027-030-031-034>040-042>050-021100-
...SOUTH CAROLINA...

CITY           SKY/WX    TMP DP  RH WIND       PRES   REMARKS
N CHARLESTON   CLEAR     78  75  90 CALM      30.06R
WATERFRONT PRK   N/A     81 N/A N/A W3          N/A
FORT JOHNSON   NOT AVBL
MOUNT PLEASANT FAIR      77  75  94 CALM      30.07R FOG
JOHNS ISLAND   MOSUNNY   79  79 100 CALM      30.07R
PINOPOLIS        N/A     81  75  83 CALM      29.97F
MONCKS CORNER    N/A     75  75 100 CALM      30.07R FOG
SUMMERVILLE    FAIR      73  73 100 CALM      30.07R
BEAUFORT MCAS  CLEAR     78  75  90 CALM      30.05R
BEAUFORT ARPT  FAIR      79  79 100 CALM      30.05S
HILTON HEAD IS NOT AVBL
GEORGETOWN     NOT AVBL
WALTERBORO     MOSUNNY   75 N/A N/A CALM      30.07S
ORANGEBURG     CLEAR     74  72  93 CALM      30.07R FOG
BARNWELL       FAIR      75  75 100 N5        30.07R
AIKEN          FAIR      72  72 100 CALM      30.11S
MANNING        FAIR      77 N/A N/A CALM      30.07R
KINGSTREE      NOT AVBL
COLUMBIA       PTCLDY    75  71  87 W3        30.06R
SUMTER         CLEAR     76  75  96 S1        30.05S
FLORENCE       CLEAR     75  73  93 S3        30.06R
MYRTLE BEACH   PTCLDY    79  73  83 CALM      30.07R
N MYRTLE BEACH PTCLDY    78  76  93 CALM      30.07R

$$

GAZ063-065-086>088-099>101-113>116-118-119-134-136>141-150-021100-
...GEORGIA...

CITY           SKY/WX    TMP DP  RH WIND       PRES   REMARKS
SAVANNAH ARPT  PTCLDY    78  74  87 CALM      30.06R
HUNTER AAF     CLEAR     76  75  98 E2        30.04R
FORT STEWART   CLEAR     74  73  94 CALM      30.04R
STATESBORO     NOT AVBL
SYLVANIA       FOG       74  73  97 CALM      30.07R VSB 1
CLAXTON        NOT AVBL
THOMSON        PTCLDY    72  72 100 CALM      30.13R
AUGUSTA-BUSH   PTCLDY    74  73  97 CALM      30.06R FOG
AUGUSTA-DANIEL PTCLDY    77  71  82 CALM      30.08R
SWAINSBORO     FAIR      75  75 100 CALM      30.07R
VIDALIA          N/A     73  73 100 CALM      30.07R
ALMA           PTCLDY    73  71  93 CALM      30.06R
WAYCROSS       PTCLDY    77  76  98 CALM      30.06R
JESUP            N/A     73  72  94 CALM      30.07R
BRUNSWICK      CLEAR     77  72  83 CALM      30.07R
SAINT SIMONS   CLEAR     79  74  84 SW7       30.05R

$$

SCZ027-028-034-036>038-045-046-048>050-GAZ119-141-021100-
...LAKE AND SUPPLEMENTAL COASTAL OBSERVATIONS...

STATION/POSITION TIME  TEMP    WIND        PRES    WAVE   SWELL
                       AIR SEA DIR/SP/G            HT/PER HT/PER/DIR
                 (UTC) (F)     (DEG/KT/KT) (MB)    (FT/S) (FT/S/D)
UPR LAKE MARION  NOT AVBL
WINYAH BAY       1000   79     270/  3     1018.0R
LAKE MURRAY      0900   78     250/  4/  5 1017.3S
ACE BASIN NERRS  1000   78        CALM     1017.0S
FORT PULASKI     1000   80     220/  2/  2 1018.0R
SAPELO ISLAND    1000   81     250/  4     1018.0R

$$

ANZ835-935-AMZ111-154-330-350-352-354-374-450-454-472-021100-
...C-MAN AND BUOY OBSERVATIONS...

STATION/POSITION TIME  TEMP    WIND        PRES    WAVE   SWELL
                       AIR SEA DIR/SP/G            HT/PER HT/PER/DIR
                 (UTC) (F)     (DEG/KT/KT) (MB)    (FT/S) (FT/S/D)
FOLLY BEACH CMAN 1000   82     240/  5/  7 1018.3R
BUOY 41004       1000   83 83  240/  8/ 10 1017.3S   2/ 9   2/ 9
BUOY 41008       1000   83 85  200/  8/ 10 1017.5R   2/ 9   2/100/ 9
5E ST. MARYS GA  1000      84                N/A     2/ 9
FRYING PAN BUOY  NOT AVBL
BUOY 41025       1000   80     240/ 16/ 17 1017.5R   4/ 4   2/100/ 9
CAPE LOOKOUT NC  1000   80     250/  9/ 11 1017.8R
BUOY 41002       0945   81 83  220/ 10/ 12 1019.6F   4/10   3/ 70/10
BUOY 41010       1000   82 84  130/  4/  6 1017.9S   3/ 8   3/ 70/ 8
BUOY 41012       NOT AVBL
ST AUGUSTINE FL  1000   78     200/  5/  6 1018.3R
CAPERS NEARSHORE 0900   82     230/ 12/ 14   N/A
FRIPP NEARSHORE  NOT AVBL


$$



USA.gov is the U.S. government's official web portal to all federal, state and local government web resources and services.